DateTimeUTC,F1_A11,F1_S11,BsB_S11,BsG_S11,BsR_S11,BbsB_S11,BbsG_S11,BbsR_S11,BaB_A11,BaG_A11,BaR_A11,Tu_S11,T_S11,Uu_S11,U_S11,P_S11,T1_A11
2021-09-09T07:00:00Z,00000200,21000000,,,,,,,0000.02,0000.20,-000.16,17.2,24.5,,00.0,0660.7,30.8
2021-09-09T07:01:00Z,00000200,21000000,,,,,,,0000.23,0000.03,0000.15,17.2,24.5,,00.0,0660.8,30.9
2021-09-09T07:02:00Z,00000200,21000000,,,,,,,-000.07,-000.02,0000.05,17.2,24.5,,00.0,0660.8,30.9
2021-09-09T07:03:00Z,00000200,61000000,,,,,,,0000.42,0000.24,0000.38,17.2,24.5,,00.0,0660.8,30.9
2021-09-09T07:04:00Z,00000200,41000000,0000.16,-000.10,-000.02,-000.06,-000.04,-000.24,0000.21,0000.09,0000.04,17.7,24.3,,00.0,0661.8,30.9
2021-09-09T07:05:00Z,00000200,01000000,0001.07,-000.16,0000.24,-000.15,0000.06,-000.02,0001.95,0002.31,0001.72,17.8,24.3,,00.0,0661.8,30.9
2021-09-09T07:06:00Z,00000200,01000000,0001.75,0000.08,0000.00,0000.41,-000.06,-000.15,-001.78,-001.68,-001.35,17.8,24.3,,00.0,0661.9,30.9
2021-09-09T07:07:00Z,00000200,01000000,0000.21,0000.17,0000.59,0000.60,-000.37,0000.30,-000.23,-000.23,-000.44,17.9,24.3,,00.0,0661.9,30.9
2021-09-09T07:08:00Z,00000200,01000000,0000.54,-000.29,0000.06,-000.04,0000.37,-000.19,0000.04,-000.09,0000.03,17.9,24.4,,00.0,0661.9,30.9
2021-09-09T07:09:00Z,00000200,01000000,0000.82,0000.04,-000.16,-000.21,0000.08,0000.04,0000.04,0000.14,0000.03,18.0,24.4,,00.0,0661.9,30.9
2021-09-09T07:10:00Z,00000200,01000000,0000.09,-000.20,-000.00,0000.27,-000.17,-000.08,-000.19,-000.20,-000.14,18.0,24.4,,00.0,0661.9,30.9
2021-09-09T07:11:00Z,00000200,01000000,0000.63,-000.07,0000.04,0000.16,0000.09,-000.22,-000.36,-000.14,0000.07,17.9,24.4,,00.0,0661.8,30.9
2021-09-09T07:12:00Z,00000200,01000000,0000.04,-000.25,-000.32,0000.18,-000.22,-000.05,0000.30,-000.10,0000.04,17.9,24.3,,00.0,0661.8,30.9
2021-09-09T07:13:00Z,00000200,01000000,0000.03,-000.43,0000.00,0000.34,0000.06,-000.11,0000.17,0000.15,-000.01,17.9,24.4,,00.0,0661.8,30.9
2021-09-09T07:14:00Z,00000200,01000000,0000.25,-000.07,0000.01,0000.04,-000.03,0000.07,0000.08,-000.23,0000.21,17.9,24.3,,00.0,0661.8,30.9
2021-09-09T07:15:00Z,00000200,01000000,0000.20,-000.49,-000.24,0000.47,0000.10,-000.08,0000.09,0000.14,-000.14,17.9,24.3,,00.0,0661.8,30.9
2021-09-09T07:16:00Z,00000200,01000000,0000.88,-000.05,-000.07,0000.47,0000.33,0000.02,-000.14,0000.42,0000.10,18.0,24.4,,00.0,0661.8,30.9
2021-09-09T07:17:00Z,00000200,01000000,0000.21,-000.00,0000.20,-000.23,0000.23,0000.34,-000.33,-000.30,-000.20,18.0,24.4,,00.0,0661.8,30.9
2021-09-09T07:18:00Z,00000200,01000000,0000.63,-000.30,-000.10,0000.27,0000.00,-000.17,0000.49,0000.41,0000.31,18.1,24.4,,00.0,0661.8,30.9
2021-09-09T07:19:00Z,00000200,01000000,0000.03,0000.18,-000.08,-000.31,-000.10,0000.00,-000.20,-000.28,-000.37,18.1,24.4,,00.0,0661.8,30.9
2021-09-09T07:20:00Z,00000200,01000000,0000.71,-000.23,0000.57,0000.35,-000.00,0000.30,-000.15,-000.43,0000.36,18.1,24.4,,00.0,0661.8,30.9
2021-09-09T07:21:00Z,00000200,01000000,0000.80,-000.02,-000.14,0000.14,-000.27,-000.04,-000.31,0000.05,-000.68,18.0,24.4,,00.0,0661.8,30.9
2021-09-09T07:22:00Z,00000200,01000000,0000.80,0000.11,-000.11,0000.48,-000.02,0000.12,-000.19,-000.22,-000.26,18.0,24.4,,00.0,0661.8,30.9
2021-09-09T07:23:00Z,00000200,01000000,0001.05,-000.06,-000.01,0000.19,0000.23,0000.08,0000.12,0000.37,0000.43,17.9,24.3,,00.0,0661.8,30.9
2021-09-09T07:24:00Z,00000200,01000000,0000.57,-000.15,-000.03,-000.18,0000.18,-000.19,0000.32,0000.10,0000.25,17.8,24.3,,00.0,0661.8,30.9
2021-09-09T07:25:00Z,00000200,01000000,0000.01,0000.02,0000.16,0000.22,-000.10,-000.18,0000.01,-000.03,-000.59,17.7,24.3,,00.0,0661.7,30.8
2021-09-09T07:26:00Z,00000200,01000000,0000.27,0000.10,0000.01,0000.52,0000.01,0000.04,0000.45,0000.25,0000.51,17.5,24.2,,00.0,0661.7,30.8
2021-09-09T07:27:00Z,00000200,01000000,0000.92,-000.08,-000.09,0000.38,0000.18,0000.08,-000.16,-000.51,0000.06,17.4,24.1,,00.0,0661.7,30.8
2021-09-09T07:28:00Z,00000200,01000000,0000.31,0000.14,0000.05,-000.18,-000.05,-000.20,-000.03,0000.39,0000.13,17.4,24.1,,00.0,0661.7,30.8
2021-09-09T07:29:00Z,00000200,01000000,0000.61,0000.11,-000.11,0000.05,0000.20,-000.02,0000.47,0000.05,0000.05,17.4,24.1,,00.0,0661.7,30.8
2021-09-09T07:30:00Z,00000200,01000000,0000.07,-000.27,0000.07,0000.06,0000.23,0000.07,-000.07,0000.29,0000.03,17.5,24.1,,00.0,0661.7,30.8
2021-09-09T07:31:00Z,00000200,01000000,0000.39,-000.27,-000.16,0000.28,0000.04,-000.08,0000.14,0000.15,0000.01,17.5,24.1,,00.0,0661.7,30.8
2021-09-09T07:32:00Z,00000200,01000000,0000.93,0000.06,-000.18,0000.63,-000.14,-000.13,-000.01,0000.04,0000.20,17.6,24.1,,00.0,0661.7,30.9
2021-09-09T07:33:00Z,00000200,01000000,-000.06,-000.25,0000.01,0000.10,0000.04,-000.02,0000.15,0000.00,0000.08,17.6,24.1,,00.0,0661.7,30.9
2021-09-09T07:34:00Z,00000200,01000000,0000.16,-000.14,0000.11,0000.44,0000.17,0000.12,0000.13,-000.12,0000.13,17.7,24.1,,00.0,0661.7,30.9
2021-09-09T07:35:00Z,00000200,01000000,0001.70,-000.13,-000.05,0000.06,-000.10,0000.12,-000.52,0000.05,-000.09,17.7,24.2,,00.0,0661.7,30.9
2021-09-09T07:36:00Z,00000200,01000000,0000.81,-000.36,0000.07,0000.31,-000.06,0000.22,0000.80,0000.48,0000.28,17.7,24.2,,00.0,0661.7,30.9
2021-09-09T07:37:00Z,00000200,01000000,0000.45,-000.16,-000.05,0000.33,0000.03,0000.33,-000.40,-000.35,-000.34,17.8,24.2,,00.0,0661.7,30.9
2021-09-09T07:38:00Z,00000200,01000000,0000.10,-000.44,-000.08,0000.35,0000.05,-000.11,-000.17,-000.21,0000.14,17.9,24.2,,00.0,0661.7,30.9
2021-09-09T07:39:00Z,00000200,01000000,0000.27,-000.02,-000.20,0000.03,0000.12,0000.10,0000.44,0000.25,0000.10,17.9,24.3,,00.0,0661.7,30.9
2021-09-09T07:40:00Z,00000200,01000000,0000.38,0000.06,0000.12,0000.52,0000.13,-000.08,-000.34,0000.02,0000.10,18.0,24.3,,00.0,0661.8,30.9
2021-09-09T07:41:00Z,00000200,01000000,0000.19,0000.08,-000.40,0000.59,-000.18,-000.06,0000.35,0000.02,-000.14,17.9,24.3,,00.0,0661.7,30.9
2021-09-09T07:42:00Z,00000200,01000000,-000.29,-000.38,0000.02,0000.52,0000.10,-000.11,-000.34,-000.02,-000.07,17.9,24.3,,00.0,0661.7,30.9
2021-09-09T07:43:00Z,00000200,01000000,0001.07,0000.07,0000.12,0000.41,-000.04,-000.02,0000.07,-000.25,0000.15,17.9,24.3,,00.0,0661.7,30.9
2021-09-09T07:44:00Z,00000200,01000000,-000.08,-000.13,-000.11,0000.01,-000.09,-000.02,0000.08,0000.34,-000.27,17.9,24.3,,00.0,0661.7,30.9
2021-09-09T07:45:00Z,00000200,01000000,0001.06,-000.37,-000.15,-000.09,-000.10,0000.08,-000.14,-000.06,0000.06,17.9,24.3,,00.0,0661.7,30.9
2021-09-09T07:46:00Z,00000200,01000000,-000.45,-000.28,-000.04,0000.20,0000.07,0000.11,0000.14,0000.15,-000.03,18.0,24.3,,00.0,0661.7,30.9
2021-09-09T07:47:00Z,00000200,01000000,0001.07,0000.07,-000.31,0000.35,0000.27,-000.18,-000.09,-000.19,0000.07,18.0,24.3,,00.0,0661.7,30.9
2021-09-09T07:48:00Z,00000200,01000000,-000.31,-000.44,0000.09,0000.31,-000.12,-000.13,-000.04,0000.43,0000.28,18.0,24.3,,00.0,0661.7,30.9
2021-09-09T07:49:00Z,00000200,01000000,0000.89,-000.17,0000.07,0000.25,0000.21,-000.09,0000.19,-000.37,-000.22,18.1,24.3,,00.0,0661.7,30.9
2021-09-09T07:50:00Z,00000200,01000000,0000.25,-000.16,-000.12,0000.18,0000.02,-000.17,-000.06,0000.08,0000.16,18.1,24.4,,00.0,0661.7,30.9
2021-09-09T07:51:00Z,00000200,01000000,-000.14,-000.16,-000.23,-000.16,-000.15,-000.00,-000.23,-000.17,-000.01,18.1,24.4,,00.0,0661.7,30.9
2021-09-09T07:52:00Z,00000200,01010000,0000.28,-000.22,-000.23,0000.57,0000.11,0000.07,-000.47,-000.51,-000.42,18.0,24.3,,00.0,0661.7,30.9
2021-09-09T07:53:00Z,00000200,01000000,0001.01,-000.27,-000.00,0000.58,-000.01,-000.39,0000.53,0000.26,-000.33,17.9,24.3,,00.0,0661.6,30.9
2021-09-09T07:54:00Z,00000200,01000000,0000.49,-000.14,-000.23,0000.10,0000.13,-000.11,-000.19,0000.04,0000.18,17.8,24.2,,00.0,0661.6,30.9
2021-09-09T07:55:00Z,00000200,01000000,0000.45,-000.05,-000.21,0000.48,-000.03,0000.20,-000.13,-000.17,0000.15,17.7,24.2,,00.0,0661.6,30.9
2021-09-09T07:56:00Z,00000200,01000000,0000.36,-000.15,-000.01,0000.12,0000.02,-000.23,-000.22,0000.01,-000.39,17.6,24.1,,00.0,0661.6,30.8
2021-09-09T07:57:00Z,00000200,41000000,,,,,,,0000.04,-000.51,0000.11,17.5,24.1,,00.0,0661.6,30.8
2021-09-09T07:58:00Z,00000200,61000000,,,,,,,0000.09,0000.11,-000.21,17.1,24.2,,00.0,0660.5,30.8
2021-09-09T07:59:00Z,00000200,21000000,,,,,,,0000.12,0000.25,0000.37,17.1,24.3,,00.0,0660.6,30.8
